Weather History for Albuquerque Double Eagle, NM

Change the Weather History Date:

Thursday, February 13, 2014

  Actual Average Record
Temperature  
Mean Temperature 50 °F -  
Max Temperature 66 °F - - ()
Min Temperature 33 °F - - ()
Degree Days  
Heating Degree Days 16    
Moisture  
Dew Point 20 °F    
Average Humidity 40    
Maximum Humidity 56    
Minimum Humidity 18    
Precipitation  
Precipitation 0.00 in - - ()
Sea Level Pressure  
Sea Level Pressure 30.09 in    
Wind  
Wind Speed 9 mph (WNW)    
Max Wind Speed 21 mph    
Max Gust Speed 29 mph    
Visibility 10 miles    
Events      
T = Trace of Precipitation, MM = Missing Value Source: NWS Daily Summary

Daily Weather History Graph

Daily Weather History Graph

Search for Another Location

Airport:

Trip Planner

Search our weather history database for the weather conditions in past years. The results will help you decide how hot, cold, wet, or windy it might be!

Date:

Astronomy

Feb. 13, 2014 Rise Set
Actual Time 6:55 AM MST 5:47 PM MST
Civil Twilight 6:29 AM MST 6:13 PM MST
Nautical Twilight 5:59 AM MST 6:43 PM MST
Astronomical Twilight 5:30 AM MST 7:13 PM MST
Moon 4:58 PM MST (2/13) 5:49 AM MST (2/13)
Length of Visible Light 11h 44m
Length of Day
10h 52m
Waxing Gibbous, 99% of the Moon is Illuminated
Feb 13
Waxing Gibbous
Feb 14
Full
Feb 22
Last Quarter
Mar 1
New
Mar 8
First Quarter

Hourly Weather History & Observations

Time (MST) Temp. Windchill Dew Point Humidity Pressure Visibility Wind Dir Wind Speed Gust Speed Precip Events Conditions
12:15 AM 38.3 °F 31.4 °F 17.4 °F 43% 30.11 in 10.0 mi NNW 10.4 mph - N/A   Clear
12:35 AM 37.6 °F 31.0 °F 17.1 °F 43% 30.12 in 10.0 mi NW 9.2 mph - N/A   Clear
12:55 AM 36.5 °F 30.3 °F 17.2 °F 46% 30.11 in 10.0 mi NNW 8.1 mph - N/A   Clear
1:15 AM 37.6 °F 30.5 °F 17.6 °F 44% 30.11 in 10.0 mi NW 10.4 mph - N/A   Clear
1:35 AM 36.9 °F 29.6 °F 17.6 °F 46% 30.10 in 10.0 mi WNW 10.4 mph - N/A   Clear
1:55 AM 36.1 °F - 18.0 °F 48% 30.11 in 10.0 mi Calm Calm - N/A   Clear
2:15 AM 34.5 °F - 17.6 °F 50% 30.11 in 10.0 mi Calm Calm - N/A   Clear
2:35 AM 37.6 °F - 17.8 °F 45% 30.11 in 10.0 mi Calm Calm - N/A   Clear
2:55 AM 35.6 °F 27.1 °F 18.9 °F 51% 30.10 in 10.0 mi NW 12.7 mph - N/A   Clear
3:15 AM 38.5 °F 29.6 °F 18.5 °F 45% 30.10 in 10.0 mi NNW 16.1 mph - N/A   Clear
3:35 AM 39.2 °F 30.5 °F 18.5 °F 43% 30.10 in 10.0 mi NNW 16.1 mph - N/A   Clear
3:55 AM 38.8 °F 29.7 °F 18.5 °F 44% 30.10 in 10.0 mi NW 17.3 mph - N/A   Clear
4:15 AM 38.8 °F 29.7 °F 18.5 °F 44% 30.10 in 10.0 mi NNW 17.3 mph - N/A   Clear
4:35 AM 39.0 °F 30.6 °F 18.3 °F 43% 30.11 in 10.0 mi NNW 15.0 mph - N/A   Clear
5:49 AM 35.6 °F 27.5 °F 17.6 °F 48% 30.12 in 10.0 mi NW 11.5 mph - N/A   Clear
6:49 AM 33.8 °F 25.3 °F 19.4 °F 56% 30.13 in 10.0 mi NW 11.5 mph - N/A   Partly Cloudy
7:49 AM 37.4 °F 33.8 °F 19.4 °F 48% 30.16 in 10.0 mi WNW 4.6 mph - N/A   Partly Cloudy
8:49 AM 46.4 °F 41.9 °F 21.2 °F 37% 30.17 in 10.0 mi NW 9.2 mph - N/A   Partly Cloudy
9:49 AM 51.8 °F - 21.2 °F 30% 30.18 in 10.0 mi Calm Calm - N/A   Partly Cloudy
10:49 AM 55.4 °F - 23.0 °F 29% 30.17 in 10.0 mi Variable 5.8 mph - N/A   Mostly Cloudy
11:48 AM 55.4 °F - 23.0 °F 29% 30.15 in 10.0 mi Variable 5.8 mph - N/A   Mostly Cloudy
12:48 PM 57.2 °F - 23.0 °F 27% 30.09 in 10.0 mi Calm Calm - N/A   Scattered Clouds
1:48 PM 62.6 °F - 23.0 °F 22% 30.06 in 10.0 mi West 5.8 mph - N/A   Partly Cloudy
3:48 PM 66.2 °F - 21.2 °F 18% 30.02 in 10.0 mi WNW 20.7 mph 28.8 mph N/A   Partly Cloudy
4:48 PM 62.6 °F - 21.2 °F 20% 30.02 in 10.0 mi WNW 13.8 mph 20.7 mph N/A   Partly Cloudy
5:49 PM 57.2 °F - 21.2 °F 25% 30.03 in 10.0 mi WNW 9.2 mph - N/A   Scattered Clouds
6:49 PM 50.0 °F - 21.2 °F 32% 30.06 in 10.0 mi WNW 5.8 mph - N/A   Partly Cloudy
7:48 PM 46.4 °F 41.5 °F 21.2 °F 37% 30.07 in 10.0 mi WNW 10.4 mph - N/A   Clear
8:48 PM 50.0 °F - 21.2 °F 32% 30.06 in 10.0 mi West 11.5 mph - N/A   Clear
9:15 PM 47.3 °F - 22.5 °F 38% 30.05 in 10.0 mi WNW 11.5 mph - N/A   Clear
9:35 PM 46.4 °F 41.1 °F 22.1 °F 38% 30.04 in 10.0 mi West 11.5 mph - N/A   Clear
9:55 PM 42.3 °F 37.3 °F 21.7 °F 44% 30.05 in 10.0 mi West 8.1 mph - N/A   Clear
10:15 PM 45.1 °F 39.9 °F 22.6 °F 41% 30.06 in 10.0 mi West 10.4 mph - N/A   Clear
10:35 PM 43.3 °F 38.6 °F 21.6 °F 42% 30.07 in 10.0 mi West 8.1 mph - N/A   Clear
10:55 PM 38.8 °F 33.8 °F 21.0 °F 49% 30.07 in 10.0 mi WSW 6.9 mph - N/A   Clear
11:15 PM 42.1 °F - 21.7 °F 44% 30.07 in 10.0 mi Calm Calm - N/A   Clear
11:35 PM 39.9 °F - 21.2 °F 47% 30.08 in 10.0 mi Calm Calm - N/A   Clear
11:55 PM 40.5 °F - 21.0 °F 46% 30.08 in 10.0 mi Calm Calm - N/A   Clear